User: anonymous   Login
Location: Unspecified
(0.0000°N, 0.0000°E)
Time: 10:44:16
(UTC+02:00)
Language:

Cosmos 773 Rocket - Orbit

View from above orbital plane
View from above orbital plane
View from above satellite
View from above satellite

Ground track
Ground track

The orbit data is extracted from the following two-line orbital elements,

1 08344U 75094B   15106.68209967  .00000253  00000-0  90386-4 0  9994
2 08344 074.0563 145.7960 0023089 247.2273 112.6442 14.38942170 71688
Epoch (UTC): 16 April 2015 16:22:13
Eccentricity: 0.0023089
inclination: 74.0563°
perigee height: 745 km
apogee height: 778 km
right ascension of ascending node: 145.7960°
argument of perigee: 247.2273°
revolutions per day: 14.38942170
mean anomaly at epoch: 112.6442°
orbit number at epoch: 7168

The dashed part of the orbit path shows where the satellite is in the earth's shadow,  

DLR